[[{"header":{"parameterUnit":"m.s-1","parameterCategory":1,"la1":30.2991,"la2":30.254,"lo1":-89.0895,"lo2":-89.0444,"dy":0.0017,"dx":0.0017,"nx":28,"ny":28,"refTime":"2025-04-29T21:00:00:Z","depth":0,"parameterNumber":2,"parameterNumberName":"U-component_of_WINDS"},"data":[0,0,0,0,0,0,0,0,0,0,0,0,0,0,0,0,0,0,0,0,0,0,0,0,0,0,0,0,0,0,0,0,0,0,0,0,0,0,0,0,0,0,0,0,0,0,0,0,0,0,0,0,0,0,0,0,0,0,-0.3913,-0.3913,0,-0.3983,-0.3984,-0.3985,-0.402,-0.402,-0.402,-0.402,-0.4091,-0.4093,-0.4095,0,0,0,0,0,0,0,0,0,0,0,0,0,-0.3811,-0.3812,-0.3913,-0.3913,-0.3914,-0.3983,-0.3984,-0.3985,-0.402,-0.402,-0.402,-0.402,-0.409,-0.4093,-0.4095,0,0,0,0,0,0,0,0,0,0,0,0,0,-0.3865,-0.3813,-0.3912,-0.394,-0.3943,-0.3983,-0.3984,-0.3985,-0.402,-0.402,-0.402,-0.402,-0.409,-0.4092,-0.4095,-0.4112,0,0,-0.4104,-0.4105,0,0,0,0,0,0,0,0,-0.3862,-0.3869,-0.3935,-0.3938,-0.3942,-0.3993,-0.3974,-0.4028,-0.402,-0.3991,-0.402,-0.402,-0.4058,-0.4064,-0.4077,-0.4116,-0.4119,-0.4104,-0.4106,-0.4107,-0.4108,0,0,0,0,0,0,0,-0.3858,-0.3866,-0.394,-0.3936,-0.394,-0.395,-0.3957,-0.3984,-0.4023,-0.3993,-0.3996,-0.4004,-0.406,-0.4074,-0.4079,-0.412,-0.4104,-0.4107,-0.4108,-0.4109,-0.418,-0.418,0,0,0,0,0,0,-0.385,-0.3863,-0.3938,-0.3943,-0.3901,-0.3951,-0.396,-0.3976,-0.4023,-0.403,-0.4004,-0.4005,-0.4069,-0.4075,-0.4081,-0.4107,-0.4107,-0.411,-0.4111,-0.418,-0.418,-0.418,0,0,0,0,0,0,-0.3847,-0.3856,-0.3935,-0.3903,-0.3914,-0.3953,-0.3971,-0.3978,-0.3992,-0.4031,-0.4038,-0.4011,-0.4069,-0.4077,-0.4105,-0.4109,-0.4111,-0.4114,-0.418,-0.418,-0.418,-0.4156,0,0,0,0,0,0,-0.3844,-0.3855,-0.3861,-0.3903,-0.3916,-0.3957,-0.3971,-0.3979,-0.3996,-0.3999,-0.404,-0.4046,-0.407,-0.4101,-0.4108,-0.4113,-0.4116,-0.4179,-0.418,-0.418,-0.4156,-0.4155,-0.4154,0,0,0,0,0,-0.3841,-0.3851,-0.3861,-0.387,-0.3924,-0.3957,-0.3965,-0.3992,-0.3996,-0.4004,-0.403,-0.4045,-0.4108,-0.4103,-0.4112,-0.4118,-0.4179,-0.418,-0.418,-0.4157,-0.4155,-0.4154,0,0,0,0,0,0,-0.3807,-0.3857,-0.3869,-0.3893,-0.3921,-0.3963,-0.3973,-0.3989,-0.4016,-0.4017,-0.405,-0.4059,-0.4084,-0.4104,-0.4098,-0.4139,-0.4145,-0.4147,-0.4125,-0.4124,-0.4123,-0.4117,-0.4118,0,0,0,0,0,-0.3803,-0.3825,-0.3867,-0.3884,-0.3898,-0.3933,-0.3948,-0.3967,-0.3997,-0.4009,-0.4037,-0.4066,-0.4093,-0.4109,-0.4136,-0.416,-0.417,-0.4169,-0.4167,-0.4166,-0.4168,-0.4185,-0.4185,-0.4182,-0.4182,-0.4182,0,0,-0.3793,-0.3823,-0.3835,-0.3879,-0.3902,-0.3926,-0.3942,-0.3966,-0.3984,-0.4013,-0.4041,-0.4063,-0.4098,-0.4124,-0.4137,-0.4142,-0.4171,-0.4167,-0.4166,-0.4168,-0.4185,-0.4185,-0.4185,-0.4182,-0.4182,-0.4182,0,0,-0.3788,-0.3812,-0.3831,-0.3855,-0.3892,-0.3915,-0.392,-0.3961,-0.3977,-0.4006,-0.4029,-0.4052,-0.4096,-0.4121,-0.4139,-0.4147,-0.4163,-0.4155,-0.4149,-0.4165,-0.4165,-0.4166,-0.417,-0.4171,-0.4156,-0.4156,-0.4156,0,-0.3772,-0.3808,-0.3838,-0.3861,-0.388,-0.3909,-0.3929,-0.3951,-0.3994,-0.4007,-0.4011,-0.407,-0.4095,-0.4129,-0.4132,-0.4145,-0.4152,-0.415,-0.4163,-0.4164,-0.4164,-0.4169,-0.4171,-0.4155,-0.4155,-0.4155,-0.4156,0,-0.3787,-0.3812,-0.3822,-0.3864,-0.3885,-0.3906,-0.394,-0.3958,-0.3976,-0.4,-0.4031,-0.4063,-0.4098,-0.4107,-0.4124,-0.4145,-0.4147,-0.4156,-0.4164,-0.4163,-0.4168,-0.417,-0.4154,-0.4154,-0.4154,-0.4155,0,0,-0.376,-0.3821,-0.3825,-0.3846,-0.389,-0.391,-0.3933,-0.3968,-0.3983,-0.4013,-0.4035,-0.4074,-0.4084,-0.4105,-0.4126,-0.414,-0.4147,-0.4148,-0.415,-0.4148,-0.4174,-0.4166,-0.4168,-0.4158,-0.4159,-0.4159,-0.4171,0,-0.3762,-0.3805,-0.3835,-0.3867,-0.3892,-0.3921,-0.3942,-0.3972,-0.3996,-0.4021,-0.4047,-0.4075,-0.4086,-0.4099,-0.4114,-0.4143,-0.4153,-0.4142,-0.4179,-0.418,-0.417,-0.417,-0.4162,-0.4172,-0.4173,-0.4174,-0.4174,0,-0.3769,-0.38,-0.3834,-0.3879,-0.389,-0.3908,-0.3945,-0.3968,-0.4003,-0.402,-0.4045,-0.4067,-0.4095,-0.41,-0.414,-0.4132,-0.415,-0.4166,-0.4168,-0.4172,-0.4177,-0.4175,-0.4175,-0.4177,-0.4177,-0.4177,-0.4177,0,-0.3748,-0.3798,-0.3826,-0.3842,-0.3894,-0.3907,-0.3929,-0.3965,-0.3985,-0.4017,-0.4031,-0.4065,-0.4084,-0.4111,-0.4142,-0.4143,-0.4179,-0.4187,-0.4195,-0.4194,-0.42,-0.42,-0.4204,-0.4211,-0.4211,-0.4211,-0.4211,0,-0.3747,-0.3767,-0.3817,-0.3834,-0.3859,-0.3894,-0.3918,-0.3943,-0.3975,-0.3999,-0.4026,-0.4048,-0.4088,-0.4115,-0.4139,-0.417,-0.4178,-0.4193,-0.4199,-0.4191,-0.4189,-0.4202,-0.4202,-0.4211,-0.4211,-0.4211,-0.4211,0,-0.3727,-0.3761,-0.3794,-0.3841,-0.3854,-0.387,-0.3912,-0.393,-0.3957,-0.3987,-0.3996,-0.4037,-0.4071,-0.4105,-0.415,-0.4167,-0.4197,-0.4205,-0.4185,-0.4189,-0.4195,-0.4194,-0.4208,-0.4213,-0.4216,-0.4216,-0.4216,0,-0.3724,-0.3741,-0.3791,-0.3809,-0.3831,-0.386,-0.3881,-0.3917,-0.3938,-0.3982,-0.3996,-0.4032,-0.4063,-0.4116,-0.415,-0.4186,-0.4195,-0.4198,-0.4201,-0.4193,-0.4197,-0.4196,-0.4198,-0.4196,-0.4196,-0.4196,-0.4196,0,-0.3716,-0.3733,-0.3762,-0.3799,-0.3824,-0.3855,-0.3886,-0.3899,-0.3942,-0.3965,-0.4,-0.4024,-0.4071,-0.4107,-0.4147,-0.4171,-0.4191,-0.4195,-0.4199,-0.419,-0.4178,-0.4186,-0.4182,-0.4194,-0.4195,-0.4195,-0.4195,-0.4195,-0.3705,-0.3723,-0.3762,-0.3795,-0.3823,-0.3852,-0.3873,-0.3903,-0.3933,-0.3975,-0.3995,-0.4031,-0.4069,-0.4125,-0.4149,-0.4179,-0.4184,-0.4189,-0.4191,-0.4192,-0.419,-0.4174,-0.4186,-0.4186,-0.4186,-0.4186,-0.4186,0,-0.37,-0.3727,-0.3757,-0.3801,-0.3828,-0.3846,-0.3882,-0.3903,-0.3935,-0.3969,-0.4,-0.4042,-0.4077,-0.4116,-0.4155,-0.4171,-0.4181,-0.418,-0.4179,-0.4185,-0.4183,-0.4176,-0.4171,-0.4171,-0.4171,-0.4171,-0.4171,-0.4171,-0.37,-0.3731,-0.3753,-0.3799,-0.3827,-0.3863,-0.3882,-0.3911,-0.3938,-0.3984,-0.4015,-0.404,-0.4077,-0.4119,-0.4153,-0.4164,-0.4177,-0.4174,-0.4187,-0.4184,-0.4185,-0.4186,-0.418,-0.4176,-0.4176,-0.4187,-0.4187,-0.4187]},{"header":{"parameterUnit":"m.s-1","parameterCategory":1,"la1":30.2991,"la2":30.254,"lo1":-89.0895,"lo2":-89.0444,"dy":0.0017,"dx":0.0017,"nx":28,"ny":28,"refTime":"2025-04-29T21:00:00:Z","depth":0,"parameterNumber":3,"parameterNumberName":"V-component_of_WINDS"},"data":[0,0,0,0,0,0,0,0,0,0,0,0,0,0,0,0,0,0,0,0,0,0,0,0,0,0,0,0,0,0,0,0,0,0,0,0,0,0,0,0,0,0,0,0,0,0,0,0,0,0,0,0,0,0,0,0,0,0,4.1367,4.1367,0,4.1435,4.1435,4.1436,4.1403,4.1401,4.1399,4.1398,4.1463,4.1466,4.147,0,0,0,0,0,0,0,0,0,0,0,0,0,4.1202,4.1205,4.1367,4.1367,4.1368,4.1435,4.1435,4.1436,4.1403,4.1401,4.1399,4.1397,4.1462,4.1466,4.147,0,0,0,0,0,0,0,0,0,0,0,0,0,4.1272,4.1207,4.1366,4.136,4.136,4.1434,4.1435,4.1437,4.1404,4.1401,4.1398,4.1396,4.1461,4.1466,4.1471,4.1554,0,0,4.1486,4.1488,0,0,0,0,0,0,0,0,4.1268,4.1278,4.136,4.136,4.1361,4.1408,4.1402,4.1476,4.1404,4.1387,4.1398,4.1395,4.1447,4.1453,4.1471,4.1557,4.156,4.1487,4.149,4.1492,4.1493,0,0,0,0,0,0,0,4.1264,4.1275,4.1393,4.1361,4.1362,4.1351,4.1359,4.1415,4.143,4.1388,4.1386,4.1395,4.1446,4.1466,4.1472,4.1561,4.1486,4.1491,4.1494,4.1496,4.1718,4.172,0,0,0,0,0,0,4.126,4.1271,4.1391,4.1395,4.1307,4.1357,4.1365,4.1395,4.143,4.1433,4.1397,4.1393,4.1459,4.1466,4.1474,4.1574,4.1492,4.1497,4.1499,4.1715,4.1718,4.1721,0,0,0,0,0,0,4.1256,4.1271,4.1388,4.1333,4.1347,4.1362,4.1397,4.1398,4.1418,4.1436,4.1438,4.1415,4.1457,4.1467,4.1535,4.1576,4.1499,4.1503,4.1712,4.1716,4.172,4.1774,0,0,0,0,0,0,4.1252,4.127,4.1303,4.1334,4.135,4.1449,4.1399,4.1401,4.1427,4.1423,4.1454,4.1456,4.1456,4.1527,4.154,4.1581,4.1507,4.1708,4.1713,4.1719,4.1769,4.178,4.1789,0,0,0,0,0,4.1246,4.1315,4.1305,4.132,4.1393,4.1452,4.1461,4.146,4.1431,4.1463,4.1475,4.1455,4.1569,4.1534,4.1548,4.1592,4.1705,4.1712,4.1718,4.1764,4.1778,4.1789,0,0,0,0,0,0,4.1288,4.1319,4.1308,4.139,4.1419,4.1446,4.1488,4.1475,4.1511,4.1505,4.1501,4.1508,4.1578,4.1591,4.1552,4.1674,4.1632,4.1642,4.1663,4.1676,4.1686,4.1681,4.1512,0,0,0,0,0,4.1307,4.1354,4.1378,4.1447,4.1462,4.1473,4.1498,4.1495,4.1524,4.1536,4.1552,4.158,4.1622,4.1649,4.1689,4.177,4.1776,4.1807,4.1817,4.1825,4.1834,4.1876,4.189,4.1742,4.1742,4.1742,0,0,4.1346,4.1369,4.1399,4.1456,4.1478,4.1525,4.1483,4.1535,4.157,4.1543,4.1608,4.1621,4.1651,4.1726,4.1759,4.1739,4.1875,4.1834,4.184,4.1844,4.1884,4.1898,4.1911,4.1747,4.1746,4.1745,0,0,4.1442,4.1464,4.1524,4.1547,4.1581,4.1587,4.1601,4.1631,4.1639,4.1704,4.1685,4.1724,4.1797,4.1819,4.184,4.1942,4.1925,4.1954,4.2008,4.205,4.2061,4.2071,4.2107,4.212,4.1962,4.1963,4.1963,0,4.1486,4.1558,4.1556,4.161,4.1635,4.1614,4.1674,4.1695,4.174,4.1757,4.1733,4.1823,4.1842,4.1921,4.1946,4.1963,4.1978,4.1951,4.206,4.207,4.208,4.2114,4.2127,4.1966,4.1966,4.1965,4.1965,0,4.161,4.166,4.1704,4.1749,4.1779,4.1835,4.184,4.187,4.1863,4.1871,4.1937,4.1959,4.2002,4.202,4.2014,4.2097,4.2084,4.206,4.2019,4.2097,4.2129,4.2142,4.1971,4.197,4.1969,4.1968,0,0,4.1736,4.1778,4.1794,4.1814,4.1849,4.1886,4.194,4.1983,4.2009,4.2039,4.2084,4.2145,4.2123,4.2147,4.2142,4.2179,4.2257,4.2151,4.2151,4.2169,4.2349,4.2367,4.2382,4.2246,4.2248,4.225,4.2347,0,4.1834,4.1931,4.193,4.2019,4.2064,4.2043,4.209,4.2115,4.2124,4.2162,4.217,4.2213,4.2181,4.2195,4.223,4.224,4.2293,4.2233,4.2286,4.2288,4.2279,4.2399,4.2418,4.2508,4.2359,4.2361,4.2363,0,4.1962,4.1998,4.2091,4.2118,4.2137,4.218,4.2218,4.2255,4.2283,4.2286,4.2312,4.2301,4.2354,4.231,4.2382,4.2342,4.2363,4.237,4.2374,4.2379,4.233,4.2407,4.2537,4.2551,4.2383,4.2381,4.238,0,4.2044,4.2115,4.218,4.2197,4.2231,4.2261,4.2275,4.23,4.2326,4.2359,4.2375,4.2413,4.2434,4.2463,4.2462,4.2431,4.2535,4.2492,4.2538,4.2538,4.2561,4.256,4.2697,4.2575,4.2575,4.2574,4.2574,0,4.2153,4.2211,4.2217,4.2257,4.2321,4.2318,4.238,4.2392,4.2414,4.2454,4.2438,4.2476,4.2473,4.2511,4.251,4.2569,4.2579,4.2582,4.2581,4.2584,4.2583,4.2598,4.2591,4.2578,4.2577,4.2576,4.2576,0,4.2256,4.2263,4.2332,4.2358,4.2365,4.2411,4.2432,4.2469,4.2475,4.2526,4.2538,4.2547,4.259,4.2592,4.2642,4.2642,4.2714,4.2706,4.2705,4.2704,4.275,4.2745,4.2901,4.2921,4.2786,4.2787,4.2788,0,4.2326,4.237,4.2401,4.2427,4.2444,4.2487,4.2513,4.2511,4.2538,4.2572,4.2604,4.2646,4.268,4.275,4.276,4.2798,4.279,4.2842,4.2796,4.2797,4.2791,4.2789,4.2792,4.2851,4.2853,4.2854,4.2855,0,4.245,4.245,4.2489,4.2529,4.256,4.2591,4.262,4.2642,4.2642,4.2674,4.2719,4.2745,4.2795,4.2837,4.2873,4.2886,4.2871,4.2869,4.2882,4.2885,4.2883,4.2885,4.273,4.2866,4.2865,4.2864,4.2864,4.2863,4.2538,4.2576,4.2603,4.2646,4.2668,4.2694,4.273,4.274,4.2778,4.282,4.2816,4.2865,4.2889,4.2937,4.2953,4.299,4.2972,4.2991,4.2995,4.3,4.3005,4.2877,4.2996,4.2996,4.2996,4.2996,4.2995,0,4.2661,4.2677,4.2716,4.2757,4.2791,4.2774,4.2804,4.2832,4.2877,4.2901,4.2934,4.2985,4.3024,4.3037,4.3075,4.3103,4.3096,4.3113,4.3111,4.3114,4.3019,4.3004,4.3117,4.3117,4.3117,4.3117,4.3117,4.3117,4.2728,4.2791,4.2795,4.2867,4.2882,4.2932,4.295,4.2974,4.2993,4.3051,4.3084,4.3092,4.3111,4.315,4.3185,4.3188,4.3202,4.3222,4.3221,4.3133,4.3121,4.3109,4.3095,4.3225,4.3225,4.3313,4.3314,4.3315]}]]